This is the latest recevied weather packets stored in our database for station/object I3LPO-3. If no packets are shown the sender has not sent any weather packets the latest 10 day(s).
| Time | Temp. | Humidity | Pressure | Rain* | Wind** | Luminosity | Snow |
|---|---|---|---|---|---|---|---|
| 1777673621 | 12.22° C | 37% | 1028.5 hPa | - | - | - | - |
| 1777672418 | 12.78° C | 38% | 1028.2 hPa | - | - | - | - |
| 1777671214 | 12.78° C | 38% | 1028.2 hPa | - | - | - | - |
| 1777670011 | 13.33° C | 38% | 1028 hPa | - | - | - | - |
| 1777668807 | 13.33° C | 38% | 1027.9 hPa | - | - | - | - |
| 1777667603 | 13.89° C | 38% | 1027.8 hPa | - | - | - | - |
| 1777666400 | 13.89° C | 38% | 1027.7 hPa | - | - | - | - |
| 1777665196 | 14.44° C | 38% | 1027.6 hPa | - | - | - | - |
| 1777663993 | 15° C | 38% | 1027.3 hPa | - | - | - | - |
| 1777662789 | 15.56° C | 38% | 1027.1 hPa | - | - | - | - |
| 1777661586 | 15.56° C | 38% | 1026.8 hPa | - | - | - | - |
| 1777660384 | 16.11° C | 38% | 1026.3 hPa | - | - | - | - |
| 1777659183 | 16.11° C | 38% | 1026.1 hPa | - | - | - | - |
| 1777657981 | 16.67° C | 38% | 1026 hPa | - | - | - | - |
| 1777656780 | 16.67° C | 38% | 1025.8 hPa | - | - | - | - |
| 1777656296 | 16.67° C | 38% | 1025.8 hPa | - | - | - | - |
| 1777655084 | 17.22° C | 38% | 1025.8 hPa | - | - | - | - |
| 1777653880 | 17.22° C | 38% | 1025.8 hPa | - | - | - | - |
| 1777652677 | 17.22° C | 38% | 1025.9 hPa | - | - | - | - |
| 1777651473 | 17.22° C | 38% | 1026 hPa | - | - | - | - |
| 1777650270 | 17.22° C | 38% | 1026 hPa | - | - | - | - |
| 1777649066 | 17.22° C | 38% | 1026.3 hPa | - | - | - | - |
| 1777647863 | 17.22° C | 38% | 1026.5 hPa | - | - | - | - |
| 1777646659 | 17.22° C | 38% | 1026.4 hPa | - | - | - | - |
| 1777645455 | 17.78° C | 38% | 1026.5 hPa | - | - | - | - |
* Rain since midnight (hover to see other rain measurements)
** Current wind speed in m/s (hover to see current wind gust speed)